Location: Allen Lane School
(37.8198°N, 89.7382°W)
Time: 02:39:26
(UTC+00:00)

Meteor 1-27 Rocket - Visible Passes

Search period start: 26 June 2022 00:00
Search period end: 06 July 2022 00:00
Orbit: 830 x 909 km, 81.3° (Epoch: 25 June)

Date Brightness Start Highest point End Pass type
(mag) Time Alt. Az. Time Alt. Az. Time Alt. Az.
26 Jun 6.1 08:21:49 10° NNE 08:25:55 20° ENE 08:29:58 10° ESE visible
26 Jun 4.0 10:04:07 10° NNW 10:09:32 48° W 10:14:49 10° SSW visible
27 Jun 6.1 08:15:28 10° NNE 08:19:39 21° ENE 08:23:45 10° ESE visible
27 Jun 4.0 09:57:50 10° NNW 10:03:14 46° W 10:08:29 10° SSW visible
28 Jun 6.0 08:09:08 10° NNE 08:13:22 21° ENE 08:17:32 10° ESE visible
28 Jun 4.1 09:51:35 10° NNW 09:56:55 45° W 10:02:09 10° SSW visible
29 Jun 5.9 08:02:48 10° NNE 08:07:05 22° ENE 08:11:19 10° ESE visible
29 Jun 4.1 09:45:19 10° NNW 09:50:37 43° W 09:55:48 10° SSW visible
30 Jun 5.8 07:56:27 10° NNE 08:00:49 23° ENE 08:05:06 10° ESE visible
30 Jun 4.1 09:39:03 10° NNW 09:44:19 42° W 09:49:28 10° SSW visible
01 Jul 5.8 07:50:07 10° NNE 07:54:32 23° ENE 07:58:52 10° ESE visible
01 Jul 4.2 09:32:47 10° NNW 09:38:00 40° W 09:43:07 10° SSW visible
02 Jul 5.7 07:43:47 10° NNE 07:48:15 24° ENE 07:52:39 10° SE visible
02 Jul 4.2 09:26:31 10° NNW 09:31:41 39° W 09:36:33 11° SSW visible
03 Jul 5.6 07:37:27 10° NNE 07:41:58 24° ENE 07:46:25 10° SE visible
03 Jul 4.3 09:20:16 10° NNW 09:25:23 38° W 09:29:31 15° SSW visible
04 Jul 5.6 07:31:07 10° NNE 07:35:42 25° ENE 07:40:11 10° SE visible
04 Jul 4.3 09:14:00 10° NNW 09:19:04 37° W 09:22:33 18° SSW visible
05 Jul 5.5 07:24:47 10° NNE 07:29:24 26° ENE 07:33:18 13° ESE visible
05 Jul 4.3 09:07:44 10° NNW 09:12:46 35° W 09:15:40 21° SW visible
